Weather in Yegoryevka

Russia / Orenburg Oblast     52°07′35″N   55°01′52″E
temp.,
°C
wind,
m/s
gust,
m/s
humid.,
%
clouds,
%
prec.,
mm/h
press.,
hPa
HPBL,
m
3 march, wed
wed323:00−5sw81594100 1.0 1009748
02:00−4sw81594100 0.6 1006694
05:00−4sw71395100 1.4 1005650
08:00−2sw51196100 0.7 1003514
11:00−1sw61096100 1.5 1003595
14:00−1sw699599 0.3 1003596
17:000sw4797100 1.1 1003457
20:00−2nw4795100 1.0 1003281
4 march, thu
thu423:00−6wnw499592 1.1 1005207
02:00−9wnw5109423 0.0 1005189
05:00−11wnw5109431 0.0 1008203
08:00−12wnw499567 0.0 1009161
11:00−10w5109359 0.0 1010311
14:00−8sw6118975 0.0 1010494
17:00−6sw8149084 0.0 1009634
20:00−5sw81592100 0.1 1007909
5 march, fri
fri523:00−2sw101889100 0.9 1006895
02:00−1wsw91693100 0.2 1006893
05:00−1wsw81492100 0.4 1007880
08:00−3sw81492100 0.1 1008617
11:00−2sw91692100 0.2 1007730
14:00−1sw111895100 0.6 1006983
17:000sw101698100 1.3 1005933
20:00+1sw101697100 0.4 1005887
6 march, sat
sat623:00+1wsw81498100 1.0 1007750
02:00−3nw5991100 0.8 1010370
05:00−9nnw3493100 0.8 101361
08:00−12nne2392100 0.0 101529
11:00−11ne2285100 0.0 101581
14:00−7ese2379100 0.0 1013234
17:00−6e4696100 1.0 1010277
20:00−6ne4796100 3.5 1007234
7 march, sun
sun723:00−6n4795100 5.0 1005243
02:00−8nw51093100 0.1 1006279
05:00−10nw51193100 0.1 1009271
08:00−15wnw4994100 0.0 1011184
11:00−14wnw6109198 0.0 1013293
14:00−13wnw589143 0.0 1014357
17:00−14w369238 0.0 1015285
20:00−18wsw34936 0.0 101625